Lid_Strength_Index
1 1 1 1 1 0 -1 -1 -1 -1 -0 -0 -1 -1 -1 -1 -1 -1 -1 1 -0 -1 -1 -2 -2 -2 -2 -2 -1 -1 -1 -1 -2 -2 -2 -2 -2 -1 -2 -2 -2 -2 -2
0 0 0 0 0 0 -0 -1 -1 -0 -0 -0 0 -0 -0 -0 -1 -1 -1 -1 1 -0 -1 -1 -1 -1 -2 -2 -2 -2 -1 -1 -1 -1 -2 -2 -2 -2 -1 -1 -2 -2 -2
-0 -0 -1 -1 -1 -1 -1 -1 -1 -1 -0 -0 -0 -0 -0 -0 -0 -0 -0 -1 -1 1 -0 -1 -1 -1 -1 -1 -1 -1 -1 -1 -1 -1 -1 -1 -1 -2 -2 -2 -2 -2 -2
1 1 0 -0 -1 -1 -1 -0 -0 0 0 0 0 0 0 -0 -0 -0 -0 -1 -0 -1 -0 -0 -1 -1 -1 -1 -1 -2 -2 -2 -1 -1 -1 -1 -1 -1 -1 -1 -1 -1 -2
1 0 -0 -1 -1 -1 -0 -0 -0 0 1 1 1 0 0 0 0 -0 -0 -0 -0 -1 -1 -0 -0 -1 -1 -1 -1 -2 -2 -1 -2 -2 -2 -1 -1 -1 -1 -1 -1 -1 -2
1 1 1 1 0 -0 -0 -0 0 -0 0 1 1 1 0 0 -0 -0 0 0 -0 -1 -1 -1 -1 -1 -1 -1 -1 -1 -2 -1 -2 -2 -2 -2 -2 -1 -1 -1 -1 -1 -1
2 2 1 1 1 2 1 1 1 1 1 0 1 1 1 0 0 0 0 1 1 2 2 3 1 1 -0 -1 -2 -1 -1 -2 -2 -1 -1 -2 -1 -1 -1 -1 -1 -1 -1
4 4 4 3 3 3 2 2 2 2 1 1 2 2 4 2 1 1 0 0 3 3 4 4 3 4 2 1 3 3 3 0 -1 -2 -2 -2 -1 -1 -1 -1 -1 -1 -1
6 5 5 5 5 5 5 5 4 3 4 2 2 3 5 6 3 1 1 1 2 3 4 5 5 4 4 4 4 5 6 4 1 0 -1 -2 -2 -2 -2 -2 -1 -1 -1
7 7 7 7 6 5 5 6 6 5 5 6 3 4 3 4 5 6 2 1 4 5 6 6 5 4 6 8 8 7 7 6 3 2 0 -0 -1 -2 -2 -2 -2 -1 -1
8 8 8 8 8 7 6 7 7 6 6 6 6 6 6 5 5 6 6 5 5 5 6 7 3 5 6 7 8 8 8 6 5 4 2 0 0 1 0 -0 -1 -1 -1
9 9 9 9 8 8 8 8 8 8 8 7 7 7 8 7 7 8 9 8 8 8 8 4 5 5 7 8 9 9 8 7 6 4 2 2 2 3 2 2 1 1 -1
9 10 9 9 10 9 9 9 9 9 9 9 9 9 8 8 8 8 9 9 11 10 8 7 5 6 8 9 9 9 8 7 6 5 4 4 4 4 3 3 2 2 1
10 10 10 10 10 10 9 9 9 9 10 10 10 10 10 9 8 8 9 10 12 10 9 8 7 7 7 8 8 8 8 7 7 7 6 6 6 5 4 4 4 3 3
11 11 10 10 10 10 10 10 10 10 10 10 10 11 11 10 10 9 9 9 11 13 12 10 10 8 8 8 8 8 8 8 7 7 7 8 8 6 6 6 5 5 4
11 11 11 11 11 11 11 11 10 10 11 11 11 11 12 11 11 10 10 10 10 11 13 10 10 9 8 9 8 8 8 8 8 7 7 8 7 7 7 7 6 6 5
11 11 11 12 12 12 12 12 12 12 12 12 11 12 12 12 12 11 10 10 10 10 12 11 10 9 9 9 9 9 9 9 9 8 8 7 7 8 8 8 8 7 7
11 12 12 12 12 12 12 13 13 12 12 12 12 12 13 13 12 11 11 12 11 11 12 12 11 10 10 9 9 9 9 9 8 8 8 8 8 8 8 8 8 7 8
12 12 12 12 13 13 13 13 13 12 12 12 12 12 13 13 13 12 12 12 11 11 11 11 11 10 10 9 9 9 9 8 8 7 7 7 8 8 8 8 8 7 8
12 12 12 12 12 12 13 13 13 12 12 12 12 12 12 13 13 12 12 11 11 11 11 11 11 11 10 9 9 10 10 8 8 8 7 7 7 8 8 8 8 8 8
12 12 12 12 12 12 13 13 12 12 12 12 12 13 12 12 12 12 12 11 11 11 11 11 11 10 10 10 10 9 9 9 8 6 7 7 7 8 8 8 8 9 9
12 12 12 12 12 13 13 13 12 12 12 13 13 13 12 12 12 12 11 11 11 11 11 11 10 10 9 9 8 9 9 10 11 7 8 8 7 7 7 7 8 9 9
12 12 13 13 13 12 13 13 12 12 12 12 13 13 13 13 12 12 11 11 10 9 9 9 10 9 9 8 9 9 9 9 9 8 8 9 7 8 7 7 7 8 9
12 12 13 13 13 13 12 13 12 13 13 12 12 13 13 13 12 11 11 11 10 9 8 8 8 8 8 8 8 8 8 9 8 8 8 10 8 8 7 7 6 7 8
13 13 13 13 13 13 13 13 13 13 13 13 12 12 12 12 11 10 11 11 10 9 7 7 7 7 7 7 7 8 9 10 11 10 8 9 8 8 7 7 7 7 8
13 13 13 13 12 13 13 13 13 13 13 13 13 12 12 11 10 10 11 10 10 9 8 9 8 8 8 8 8 8 9 10 11 11 9 10 10 9 10 7 6 7 8